Weather History for Greenville, ME

Change the Weather History Date:

Tuesday, December 25, 2012

  Actual Average (KMLT) Record (KMLT)
Temperature  
Mean Temperature 16 °F 19 °F  
Max Temperature 24 °F 28 °F 51 °F (2003)
Min Temperature 9 °F 10 °F -24 °F (1914)
Degree Days  
Heating Degree Days 48 46  
Month to date heating degree days 1038  
Since 1 July heating degree days 2881  
Cooling Degree Days 0 0  
Month to date cooling degree days 0  
Year to date cooling degree days 268  
Moisture  
Dew Point 9 °F    
Average Humidity 77    
Maximum Humidity 88    
Minimum Humidity 60    
Precipitation  
Precipitation 0.00 in 0.10 in 1.97 in (1910)
Month to date precipitation 3.08  
Year to date precipitation 42.23  
Sea Level Pressure  
Sea Level Pressure 30.07 in    
Wind  
Wind Speed 8 mph (NNW)    
Max Wind Speed 13 mph    
Max Gust Speed 17 mph    
T = Trace of Precipitation, MM = Missing Value Source: NWS Daily Summary

Daily Weather History Graph

Daily Weather History Graph

Search for Another Location

Airport:

Trip Planner

Search our weather history database for the weather conditions in past years. The results will help you decide how hot, cold, wet, or windy it might be!

Date:

Astronomy

Dec. 25, 2012 Rise Set
Actual Time 7:17 AM EST 4:00 PM EST
Civil Twilight 6:42 AM EST 4:34 PM EST
Nautical Twilight 6:05 AM EST 5:12 PM EST
Astronomical Twilight 5:29 AM EST 5:48 PM EST
Moon 2:08 PM EST (12/25) 4:44 AM EST (12/25)
Length of Visible Light 9h 51m
Length of Day
8h 43m
Waxing Gibbous, 93% of the Moon is Illuminated
Dec 25
Waxing Gibbous
Dec 28
Full
Jan 4
Last Quarter
Jan 11
New
Jan 18
First Quarter

Hourly Weather History & Observations

Time (EST) Temp. Windchill Dew Point Humidity Pressure Visibility Wind Dir Wind Speed Gust Speed Precip Events Conditions
12:56 AM 14.0 °F 2.9 °F 9.0 °F 80% 30.01 in - NNW 8.1 mph - N/A   Unknown
1:56 AM 12.0 °F 1.5 °F 9.0 °F 88% 30.03 in - North 6.9 mph - N/A   Unknown
2:56 AM 12.0 °F 0.5 °F 8.1 °F 84% 30.03 in - North 8.1 mph - N/A   Unknown
3:56 AM 12.0 °F 4.1 °F 8.1 °F 84% 30.01 in - NNW 4.6 mph - N/A   Unknown
4:56 AM 10.0 °F 0.4 °F 7.0 °F 87% 30.00 in - NNE 5.8 mph - N/A   Unknown
5:56 AM 12.0 °F 1.5 °F 8.1 °F 84% 30.02 in - NNE 6.9 mph - N/A   Unknown
6:56 AM 12.9 °F -1.6 °F 9.0 °F 84% 30.02 in - North 12.7 mph - N/A   Unknown
7:56 AM 12.9 °F -0.2 °F 9.0 °F 84% 30.03 in - NNW 10.4 mph - N/A   Unknown
8:56 AM 16.0 °F 2.9 °F 9.0 °F 74% 30.04 in - NNW 11.5 mph - N/A   Unknown
9:56 AM 17.1 °F 5.8 °F 10.0 °F 74% 30.05 in - NNW 9.2 mph - N/A   Unknown
10:56 AM 19.0 °F 9.0 °F 10.0 °F 68% 30.06 in - NW 8.1 mph - N/A   Unknown
11:56 AM 21.0 °F 9.3 °F 12.0 °F 68% 30.05 in - NW 11.5 mph - N/A   Unknown
12:56 PM 23.0 °F 13.1 °F 12.0 °F 63% 30.02 in - NNW 9.2 mph - N/A   Unknown
1:56 PM 24.1 °F 15.2 °F 12.0 °F 60% 30.02 in - NW 8.1 mph - N/A   Unknown
2:56 PM 21.9 °F 10.4 °F 12.0 °F 66% 30.04 in - NNW 11.5 mph - N/A   Unknown
3:56 PM 19.9 °F 9.3 °F 10.9 °F 68% 30.05 in - NNW 9.2 mph - N/A   Unknown
4:56 PM 19.9 °F 11.1 °F 10.9 °F 68% 30.08 in - NNW 6.9 mph - N/A   Unknown
5:56 PM 18.0 °F 6.1 °F 10.0 °F 71% 30.10 in - North 10.4 mph - N/A   Unknown
6:56 PM 16.0 °F 3.6 °F 10.0 °F 77% 30.12 in - NW 10.4 mph 17.3 mph N/A   Unknown
7:56 PM 15.1 °F 4.2 °F 10.0 °F 80% 30.14 in - NNW 8.1 mph - N/A   Unknown
8:56 PM 12.9 °F 3.8 °F 9.0 °F 84% 30.17 in - NNW 5.8 mph - N/A   Unknown
9:56 PM 10.0 °F -2.9 °F 7.0 °F 87% 30.19 in - North 9.2 mph - N/A   Unknown
10:56 PM 9.0 °F -2.2 °F 6.1 °F 88% 30.21 in - North 6.9 mph - N/A   Unknown
11:56 PM 9.0 °F -0.9 °F 5.0 °F 84% 30.22 in - Variable 5.8 mph - N/A   Unknown